Location: Asheville, NC
(35.6000°N, 82.5500°W)
Time: 04:31:07
(UTC-05:00)

Vanguard 3 - Pass Details

Date: 07 December 2017
Orbit: 508 x 3264 km, 33.4° (Epoch: 17 January)

Event Time Altitude Azimuth Distance (km) Brightness Sun altitude
Rises 21:06:46 0° 269° (W) 3,886 11.4 -46.0°
Reaches altitude 10° 21:09:41 10° 255° (WSW) 3,268 10.7 -46.5°
Maximum altitude 21:16:11 24° 205° (SSW) 3,041 10.1 -47.9°
Enters shadow 21:16:11 24° 205° (SSW) 3,041 10.1 -47.9°
